Time,TemperatureF,DewpointF,PressureIn,WindDirection,WindDirectionDegrees,WindSpeedMPH,WindSpeedGustMPH,Humidity,HourlyPrecipIn,Conditions,Clouds,dailyrainin,SoftwareType,DateUTC
2013-08-14 00:01:00,63.5,62.9,29.72,ESE,108,0.0,1.0,98,0.00,,,0.00,WUHU216DAVISVP2,2013-08-14 04:01:00,
2013-08-14 00:02:00,63.5,62.9,29.72,ESE,108,0.0,1.0,98,0.00,,,0.00,WUHU216DAVISVP2,2013-08-14 04:02:00,
2013-08-14 00:07:00,63.5,62.9,29.72,ESE,108,0.0,1.0,98,0.00,,,0.00,WUHU216DAVISVP2,2013-08-14 04:07:00,
2013-08-14 00:12:00,63.5,63.2,29.72,ESE,108,0.0,1.0,99,0.00,,,0.00,WUHU216DAVISVP2,2013-08-14 04:12:00,
2013-08-14 00:17:00,63.5,63.2,29.72,East,98,1.0,1.0,99,0.00,,,0.00,WUHU216DAVISVP2,2013-08-14 04:17:00,
2013-08-14 00:22:00,63.6,63.0,29.72,East,98,0.0,1.0,98,0.00,,,0.00,WUHU216DAVISVP2,2013-08-14 04:22:00,
2013-08-14 00:27:00,63.6,63.0,29.71,NE,54,1.0,2.0,98,0.00,,,0.00,WUHU216DAVISVP2,2013-08-14 04:27:00,
2013-08-14 00:32:00,63.5,62.9,29.72,North,8,0.0,2.0,98,0.00,,,0.00,WUHU216DAVISVP2,2013-08-14 04:32:00,
2013-08-14 00:37:00,63.6,63.0,29.72,North,8,1.0,2.0,98,0.00,,,0.00,WUHU216DAVISVP2,2013-08-14 04:37:00,
2013-08-14 00:42:00,63.6,63.0,29.72,WNW,290,0.0,2.0,98,0.00,,,0.00,WUHU216DAVISVP2,2013-08-14 04:42:00,
2013-08-14 00:47:00,63.6,63.0,29.72,WNW,290,0.0,2.0,98,0.00,,,0.00,WUHU216DAVISVP2,2013-08-14 04:47:00,
2013-08-14 00:52:00,63.6,63.0,29.72,NW,323,1.0,2.0,98,0.00,,,0.00,WUHU216DAVISVP2,2013-08-14 04:52:00,
2013-08-14 00:57:00,63.5,63.2,29.71,North,360,0.0,2.0,99,0.00,,,0.00,WUHU216DAVISVP2,2013-08-14 04:57:00,
2013-08-14 01:02:00,63.5,62.9,29.71,North,360,0.0,1.0,98,0.00,,,0.00,WUHU216DAVISVP2,2013-08-14 05:02:00,
2013-08-14 01:07:00,63.4,62.8,29.71,North,360,0.0,1.0,98,0.00,,,0.00,WUHU216DAVISVP2,2013-08-14 05:07:00,
2013-08-14 01:12:00,63.4,63.1,29.71,North,360,0.0,1.0,99,0.00,,,0.00,WUHU216DAVISVP2,2013-08-14 05:12:00,
2013-08-14 01:17:00,63.4,63.1,29.71,North,360,1.0,1.0,99,0.00,,,0.00,WUHU216DAVISVP2,2013-08-14 05:17:00,
2013-08-14 01:22:00,63.4,63.1,29.70,North,360,0.0,1.0,99,0.00,,,0.00,WUHU216DAVISVP2,2013-08-14 05:22:00,
2013-08-14 01:27:00,63.4,63.1,29.70,North,360,0.0,1.0,99,0.00,,,0.00,WUHU216DAVISVP2,2013-08-14 05:27:00,
2013-08-14 01:32:00,63.4,63.1,29.70,ENE,77,0.0,1.0,99,0.00,,,0.00,WUHU216DAVISVP2,2013-08-14 05:32:00,
2013-08-14 01:37:00,63.4,63.1,29.70,NNE,33,0.0,1.0,99,0.00,,,0.00,WUHU216DAVISVP2,2013-08-14 05:37:00,
2013-08-14 01:42:00,63.3,62.7,29.70,North,353,0.0,1.0,98,0.00,,,0.00,WUHU216DAVISVP2,2013-08-14 05:42:00,
2013-08-14 01:47:00,63.3,62.7,29.70,SW,228,1.0,2.0,98,0.00,,,0.00,WUHU216DAVISVP2,2013-08-14 05:47:00,
2013-08-14 01:52:00,63.5,62.3,29.70,SSW,198,1.0,4.0,96,0.00,,,0.00,WUHU216DAVISVP2,2013-08-14 05:52:00,
2013-08-14 01:57:00,63.5,62.3,29.71,WSW,237,0.0,4.0,96,0.00,,,0.00,WUHU216DAVISVP2,2013-08-14 05:57:00,
2013-08-14 02:02:00,63.4,61.9,29.71,SSW,196,2.0,7.0,95,0.00,,,0.00,WUHU216DAVISVP2,2013-08-14 06:02:00,
2013-08-14 02:07:00,63.3,61.5,29.70,SSE,150,0.0,7.0,94,0.00,,,0.00,WUHU216DAVISVP2,2013-08-14 06:07:00,
2013-08-14 02:12:00,63.1,61.3,29.71,SE,136,2.0,7.0,94,0.00,,,0.00,WUHU216DAVISVP2,2013-08-14 06:12:00,
2013-08-14 02:17:00,62.8,60.7,29.70,SE,128,1.0,7.0,93,0.00,,,0.00,WUHU216DAVISVP2,2013-08-14 06:17:00,
2013-08-14 02:22:00,62.4,60.0,29.71,SE,136,1.0,5.0,92,0.00,,,0.00,WUHU216DAVISVP2,2013-08-14 06:22:00,
2013-08-14 02:27:00,62.1,59.7,29.71,South,186,0.0,5.0,92,0.00,,,0.00,WUHU216DAVISVP2,2013-08-14 06:27:00,
2013-08-14 02:32:00,61.6,59.6,29.71,ENE,58,0.0,5.0,93,0.00,,,0.00,WUHU216DAVISVP2,2013-08-14 06:32:00,
2013-08-14 02:37:00,61.3,58.7,29.72,NNE,24,2.0,4.0,91,0.00,,,0.00,WUHU216DAVISVP2,2013-08-14 06:37:00,
2013-08-14 02:42:00,60.7,58.1,29.72,ESE,107,0.0,4.0,91,0.00,,,0.00,WUHU216DAVISVP2,2013-08-14 06:42:00,
2013-08-14 02:47:00,60.4,57.5,29.72,East,86,3.0,4.0,90,0.00,,,0.00,WUHU216DAVISVP2,2013-08-14 06:47:00,
2013-08-14 02:52:00,60.3,58.3,29.71,East,98,1.0,4.0,93,0.00,,,0.00,WUHU216DAVISVP2,2013-08-14 06:52:00,
2013-08-14 02:57:00,59.9,58.2,29.71,NE,39,0.0,4.0,94,0.00,,,0.00,WUHU216DAVISVP2,2013-08-14 06:57:00,
2013-08-14 03:02:00,59.7,58.2,29.71,ESE,117,0.0,3.0,95,0.00,,,0.00,WUHU216DAVISVP2,2013-08-14 07:02:00,
2013-08-14 03:07:00,59.5,58.0,29.72,ESE,117,0.0,2.0,95,0.00,,,0.00,WUHU216DAVISVP2,2013-08-14 07:07:00,
2013-08-14 03:11:00,59.3,57.5,29.72,SE,129,1.0,2.0,94,0.00,,,0.00,WUHU216DAVISVP2,2013-08-14 07:11:00,
2013-08-14 03:17:00,59.4,57.3,29.72,SSW,210,0.0,2.0,93,0.00,,,0.00,WUHU216DAVISVP2,2013-08-14 07:17:00,
2013-08-14 03:22:00,59.1,56.4,29.72,ESE,115,1.0,2.0,91,0.00,,,0.00,WUHU216DAVISVP2,2013-08-14 07:22:00,
2013-08-14 03:27:00,59.3,56.3,29.72,SE,129,2.0,6.0,90,0.00,,,0.00,WUHU216DAVISVP2,2013-08-14 07:27:00,
2013-08-14 03:32:00,59.4,55.8,29.72,South,191,1.0,6.0,88,0.00,,,0.00,WUHU216DAVISVP2,2013-08-14 07:32:00,
2013-08-14 03:37:00,59.3,55.4,29.72,ESE,114,0.0,6.0,87,0.00,,,0.00,WUHU216DAVISVP2,2013-08-14 07:37:00,
2013-08-14 03:42:00,59.3,55.4,29.72,SSE,166,0.0,6.0,87,0.00,,,0.00,WUHU216DAVISVP2,2013-08-14 07:42:00,
2013-08-14 03:47:00,59.2,55.9,29.72,NW,308,0.0,3.0,89,0.00,,,0.00,WUHU216DAVISVP2,2013-08-14 07:47:00,
2013-08-14 03:52:00,58.9,55.9,29.72,SSE,166,0.0,3.0,90,0.00,,,0.00,WUHU216DAVISVP2,2013-08-14 07:52:00,
2013-08-14 03:57:00,58.9,54.7,29.72,East,99,1.0,5.0,86,0.00,,,0.00,WUHU216DAVISVP2,2013-08-14 07:57:00,
2013-08-14 04:02:00,58.9,54.7,29.72,SSE,155,4.0,5.0,86,0.00,,,0.00,WUHU216DAVISVP2,2013-08-14 08:02:00,
2013-08-14 04:07:00,58.9,54.4,29.72,SE,146,2.0,5.0,85,0.00,,,0.00,WUHU216DAVISVP2,2013-08-14 08:07:00,
2013-08-14 04:12:00,58.7,54.2,29.72,SSW,207,0.0,5.0,85,0.00,,,0.00,WUHU216DAVISVP2,2013-08-14 08:12:00,
2013-08-14 04:17:00,58.6,53.5,29.73,SSW,199,3.0,6.0,83,0.00,,,0.00,WUHU216DAVISVP2,2013-08-14 08:17:00,
2013-08-14 04:22:00,58.5,53.4,29.73,SSW,198,2.0,6.0,83,0.00,,,0.00,WUHU216DAVISVP2,2013-08-14 08:22:00,
2013-08-14 04:27:00,58.6,53.8,29.73,ESE,116,0.0,6.0,84,0.00,,,0.00,WUHU216DAVISVP2,2013-08-14 08:27:00,
2013-08-14 04:32:00,58.4,53.6,29.73,SSW,212,0.0,6.0,84,0.00,,,0.00,WUHU216DAVISVP2,2013-08-14 08:32:00,
2013-08-14 04:37:00,58.5,53.4,29.73,SSE,150,0.0,5.0,83,0.00,,,0.00,WUHU216DAVISVP2,2013-08-14 08:37:00,
2013-08-14 04:42:00,58.5,53.1,29.73,ESE,122,3.0,5.0,82,0.00,,,0.00,WUHU216DAVISVP2,2013-08-14 08:42:00,
2013-08-14 04:47:00,58.5,53.1,29.72,SSW,210,0.0,5.0,82,0.00,,,0.00,WUHU216DAVISVP2,2013-08-14 08:47:00,
2013-08-14 04:52:00,58.5,53.4,29.73,SE,136,0.0,5.0,83,0.00,,,0.00,WUHU216DAVISVP2,2013-08-14 08:52:00,
2013-08-14 04:57:00,58.4,53.0,29.73,East,83,3.0,5.0,82,0.00,,,0.00,WUHU216DAVISVP2,2013-08-14 08:57:00,
2013-08-14 05:02:00,58.3,53.2,29.73,ESE,115,0.0,5.0,83,0.00,,,0.00,WUHU216DAVISVP2,2013-08-14 09:02:00,
2013-08-14 05:07:00,58.2,52.8,29.73,ENE,69,0.0,4.0,82,0.00,,,0.00,WUHU216DAVISVP2,2013-08-14 09:07:00,
2013-08-14 05:12:00,57.9,52.1,29.73,SSE,165,1.0,5.0,81,0.00,,,0.00,WUHU216DAVISVP2,2013-08-14 09:12:00,
2013-08-14 05:16:00,57.9,53.1,29.73,SE,139,1.0,5.0,84,0.00,,,0.00,WUHU216DAVISVP2,2013-08-14 09:16:00,
2013-08-14 05:21:00,57.9,53.4,29.73,ENE,76,0.0,5.0,85,0.00,,,0.00,WUHU216DAVISVP2,2013-08-14 09:21:00,
2013-08-14 05:26:00,57.6,53.8,29.73,East,92,0.0,5.0,87,0.00,,,0.00,WUHU216DAVISVP2,2013-08-14 09:26:00,
2013-08-14 05:31:00,57.2,53.0,29.73,ESE,119,0.0,3.0,86,0.00,,,0.00,WUHU216DAVISVP2,2013-08-14 09:31:00,
2013-08-14 05:36:00,57.0,54.1,29.73,ESE,116,0.0,2.0,90,0.00,,,0.00,WUHU216DAVISVP2,2013-08-14 09:36:00,
2013-08-14 05:41:00,56.7,53.2,29.73,SE,138,0.0,0.0,88,0.00,,,0.00,WUHU216DAVISVP2,2013-08-14 09:41:00,
2013-08-14 05:46:00,56.8,52.3,29.73,SSE,155,4.0,5.0,85,0.00,,,0.00,WUHU216DAVISVP2,2013-08-14 09:46:00,
2013-08-14 05:51:00,57.2,52.4,29.73,SE,136,0.0,5.0,84,0.00,,,0.00,WUHU216DAVISVP2,2013-08-14 09:51:00,
2013-08-14 05:56:00,57.2,52.1,29.74,SE,139,0.0,5.0,83,0.00,,,0.00,WUHU216DAVISVP2,2013-08-14 09:56:00,
2013-08-14 06:01:00,57.1,52.9,29.74,SE,124,0.0,5.0,86,0.00,,,0.00,WUHU216DAVISVP2,2013-08-14 10:01:00,
2013-08-14 06:06:00,56.9,53.7,29.74,SE,124,0.0,3.0,89,0.00,,,0.00,WUHU216DAVISVP2,2013-08-14 10:06:00,
2013-08-14 06:11:00,56.7,52.6,29.74,SSW,198,0.0,3.0,86,0.00,,,0.00,WUHU216DAVISVP2,2013-08-14 10:11:00,
2013-08-14 06:16:00,56.7,53.2,29.74,SSE,159,0.0,2.0,88,0.00,,,0.00,WUHU216DAVISVP2,2013-08-14 10:16:00,
2013-08-14 06:21:00,56.7,53.5,29.74,ESE,113,0.0,2.0,89,0.00,,,0.00,WUHU216DAVISVP2,2013-08-14 10:21:00,
2013-08-14 06:26:00,56.6,53.7,29.74,ESE,113,0.0,2.0,90,0.00,,,0.00,WUHU216DAVISVP2,2013-08-14 10:26:00,
2013-08-14 06:31:00,56.5,53.0,29.75,ESE,112,0.0,1.0,88,0.00,,,0.00,WUHU216DAVISVP2,2013-08-14 10:31:00,
2013-08-14 06:36:00,56.5,53.6,29.75,ESE,110,0.0,1.0,90,0.00,,,0.00,WUHU216DAVISVP2,2013-08-14 10:36:00,
2013-08-14 06:41:00,56.5,53.6,29.75,ESE,114,0.0,1.0,90,0.00,,,0.00,WUHU216DAVISVP2,2013-08-14 10:41:00,
2013-08-14 06:46:00,56.4,52.3,29.75,East,88,0.0,1.0,86,0.00,,,0.00,WUHU216DAVISVP2,2013-08-14 10:46:00,
2013-08-14 06:51:00,56.5,53.0,29.75,NE,42,1.0,1.0,88,0.00,,,0.00,WUHU216DAVISVP2,2013-08-14 10:51:00,
2013-08-14 06:56:00,56.6,52.8,29.75,ENE,77,0.0,2.0,87,0.00,,,0.00,WUHU216DAVISVP2,2013-08-14 10:56:00,
2013-08-14 07:01:00,56.6,52.8,29.75,East,97,0.0,2.0,87,0.00,,,0.00,WUHU216DAVISVP2,2013-08-14 11:01:00,
2013-08-14 07:06:00,56.6,52.5,29.75,ESE,113,0.0,2.0,86,0.00,,,0.00,WUHU216DAVISVP2,2013-08-14 11:06:00,
2013-08-14 07:11:00,56.7,53.8,29.75,SE,129,0.0,2.0,90,0.00,,,0.00,WUHU216DAVISVP2,2013-08-14 11:11:00,
2013-08-14 07:16:00,56.6,52.5,29.75,ESE,114,0.0,2.0,86,0.00,,,0.00,WUHU216DAVISVP2,2013-08-14 11:16:00,
2013-08-14 07:21:00,56.6,53.1,29.75,ESE,106,0.0,2.0,88,0.00,,,0.00,WUHU216DAVISVP2,2013-08-14 11:21:00,
2013-08-14 07:26:00,56.6,52.1,29.75,East,101,0.0,2.0,85,0.00,,,0.00,WUHU216DAVISVP2,2013-08-14 11:26:00,
2013-08-14 07:31:00,56.7,52.9,29.75,ESE,112,0.0,1.0,87,0.00,,,0.00,WUHU216DAVISVP2,2013-08-14 11:31:00,
2013-08-14 07:36:00,56.7,53.5,29.75,ESE,112,0.0,1.0,89,0.00,,,0.00,WUHU216DAVISVP2,2013-08-14 11:36:00,
2013-08-14 07:41:00,56.8,52.3,29.75,ESE,122,0.0,2.0,85,0.00,,,0.00,WUHU216DAVISVP2,2013-08-14 11:41:00,
2013-08-14 07:46:00,57.0,52.5,29.75,ESE,122,0.0,2.0,85,0.00,,,0.00,WUHU216DAVISVP2,2013-08-14 11:46:00,
2013-08-14 07:51:00,57.2,52.1,29.75,SSE,164,1.0,2.0,83,0.00,,,0.00,WUHU216DAVISVP2,2013-08-14 11:51:00,
2013-08-14 07:56:00,57.4,52.0,29.75,SW,219,0.0,3.0,82,0.00,,,0.00,WUHU216DAVISVP2,2013-08-14 11:56:00,
2013-08-14 08:01:00,57.6,53.7,29.75,ESE,113,0.0,3.0,87,0.00,,,0.00,WUHU216DAVISVP2,2013-08-14 12:01:00,
2013-08-14 08:06:00,57.7,52.6,29.75,SSE,167,2.0,3.0,83,0.00,,,0.00,WUHU216DAVISVP2,2013-08-14 12:06:00,
2013-08-14 08:11:00,58.0,53.2,29.75,SSE,166,2.0,3.0,84,0.00,,,0.00,WUHU216DAVISVP2,2013-08-14 12:11:00,
2013-08-14 08:16:00,58.2,52.8,29.75,SSE,163,1.0,3.0,82,0.00,,,0.00,WUHU216DAVISVP2,2013-08-14 12:16:00,
2013-08-14 08:21:00,58.4,52.3,29.75,SSE,162,1.0,4.0,80,0.00,,,0.00,WUHU216DAVISVP2,2013-08-14 12:21:00,
2013-08-14 08:26:00,58.6,52.8,29.76,SSE,151,1.0,4.0,81,0.00,,,0.00,WUHU216DAVISVP2,2013-08-14 12:26:00,
2013-08-14 08:31:00,58.9,53.1,29.76,WSW,258,1.0,4.0,81,0.00,,,0.00,WUHU216DAVISVP2,2013-08-14 12:31:00,
2013-08-14 08:36:00,59.0,52.9,29.76,SSW,212,0.0,3.0,80,0.00,,,0.00,WUHU216DAVISVP2,2013-08-14 12:36:00,
2013-08-14 08:41:00,59.3,53.2,29.76,SSE,148,2.0,5.0,80,0.00,,,0.00,WUHU216DAVISVP2,2013-08-14 12:41:00,
2013-08-14 08:46:00,59.4,53.6,29.77,SSW,195,1.0,5.0,81,0.00,,,0.00,WUHU216DAVISVP2,2013-08-14 12:46:00,
2013-08-14 08:51:00,59.5,53.4,29.77,SSE,156,1.0,5.0,80,0.00,,,0.00,WUHU216DAVISVP2,2013-08-14 12:51:00,
2013-08-14 08:56:00,59.6,52.8,29.77,SSW,195,2.0,5.0,78,0.00,,,0.00,WUHU216DAVISVP2,2013-08-14 12:56:00,
2013-08-14 09:01:00,59.8,53.3,29.77,SSE,165,3.0,4.0,79,0.00,,,0.00,WUHU216DAVISVP2,2013-08-14 13:01:00,
2013-08-14 09:06:00,60.0,53.2,29.77,SSE,156,1.0,4.0,78,0.00,,,0.00,WUHU216DAVISVP2,2013-08-14 13:06:00,
2013-08-14 09:11:00,60.1,53.0,29.77,SSE,160,3.0,3.0,77,0.00,,,0.00,WUHU216DAVISVP2,2013-08-14 13:11:00,
2013-08-14 09:16:00,60.1,53.0,29.77,SSE,160,4.0,6.0,77,0.00,,,0.00,WUHU216DAVISVP2,2013-08-14 13:16:00,
2013-08-14 09:21:00,59.9,53.4,29.77,SE,124,1.0,6.0,79,0.00,,,0.00,WUHU216DAVISVP2,2013-08-14 13:21:00,
2013-08-14 09:26:00,59.9,53.8,29.77,SSE,149,1.0,6.0,80,0.00,,,0.00,WUHU216DAVISVP2,2013-08-14 13:26:00,
2013-08-14 09:31:00,60.2,53.4,29.77,SW,221,2.0,6.0,78,0.00,,,0.00,WUHU216DAVISVP2,2013-08-14 13:31:00,
2013-08-14 09:36:00,60.4,53.6,29.77,South,172,1.0,5.0,78,0.00,,,0.00,WUHU216DAVISVP2,2013-08-14 13:36:00,
2013-08-14 09:41:00,60.7,53.9,29.77,ESE,120,4.0,4.0,78,0.00,,,0.00,WUHU216DAVISVP2,2013-08-14 13:41:00,
2013-08-14 09:46:00,60.8,52.9,29.77,SSE,167,3.0,5.0,75,0.00,,,0.00,WUHU216DAVISVP2,2013-08-14 13:46:00,
2013-08-14 09:51:00,60.7,52.5,29.77,SSE,147,2.0,5.0,74,0.00,,,0.00,WUHU216DAVISVP2,2013-08-14 13:51:00,
2013-08-14 09:56:00,60.6,53.1,29.77,South,186,1.0,5.0,76,0.00,,,0.00,WUHU216DAVISVP2,2013-08-14 13:56:00,
2013-08-14 10:01:00,60.6,53.7,29.77,South,180,1.0,5.0,78,0.00,,,0.00,WUHU216DAVISVP2,2013-08-14 14:01:00,
2013-08-14 10:06:00,60.9,53.3,29.77,SSE,168,1.0,4.0,76,0.00,,,0.00,WUHU216DAVISVP2,2013-08-14 14:06:00,
2013-08-14 10:11:00,61.2,53.9,29.77,SSW,205,1.0,4.0,77,0.00,,,0.00,WUHU216DAVISVP2,2013-08-14 14:11:00,
2013-08-14 10:16:00,61.8,53.9,29.77,WSW,248,0.0,6.0,75,0.00,,,0.00,WUHU216DAVISVP2,2013-08-14 14:16:00,
2013-08-14 10:21:00,62.7,53.3,29.77,ESE,114,3.0,6.0,71,0.00,,,0.00,WUHU216DAVISVP2,2013-08-14 14:21:00,
2013-08-14 10:26:00,63.1,54.1,29.77,South,172,3.0,6.0,72,0.00,,,0.00,WUHU216DAVISVP2,2013-08-14 14:26:00,
2013-08-14 10:31:00,63.5,54.8,29.77,WSW,249,2.0,6.0,73,0.00,,,0.00,WUHU216DAVISVP2,2013-08-14 14:31:00,
2013-08-14 10:36:00,64.0,54.2,29.77,SSE,163,0.0,7.0,70,0.00,,,0.00,WUHU216DAVISVP2,2013-08-14 14:36:00,
2013-08-14 10:41:00,63.6,54.9,29.78,SW,230,3.0,7.0,73,0.00,,,0.00,WUHU216DAVISVP2,2013-08-14 14:41:00,
2013-08-14 10:46:00,63.0,53.2,29.78,SE,143,4.0,7.0,70,0.00,,,0.00,WUHU216DAVISVP2,2013-08-14 14:46:00,
2013-08-14 10:51:00,62.7,53.7,29.78,SW,236,1.0,4.0,72,0.00,,,0.00,WUHU216DAVISVP2,2013-08-14 14:51:00,
2013-08-14 10:56:00,62.4,53.0,29.78,WSW,243,1.0,4.0,71,0.00,,,0.00,WUHU216DAVISVP2,2013-08-14 14:56:00,
2013-08-14 11:01:00,62.5,54.6,29.78,SSE,158,1.0,4.0,75,0.00,,,0.00,WUHU216DAVISVP2,2013-08-14 15:01:00,
2013-08-14 11:06:00,62.7,54.4,29.78,SE,146,2.0,4.0,74,0.00,,,0.00,WUHU216DAVISVP2,2013-08-14 15:06:00,
2013-08-14 11:11:00,62.8,54.1,29.78,SW,228,2.0,6.0,73,0.00,,,0.00,WUHU216DAVISVP2,2013-08-14 15:11:00,
2013-08-14 11:16:00,63.0,54.0,29.78,West,278,2.0,6.0,72,0.00,,,0.00,WUHU216DAVISVP2,2013-08-14 15:16:00,
2013-08-14 11:21:00,63.0,54.7,29.78,SE,139,3.0,6.0,74,0.00,,,0.00,WUHU216DAVISVP2,2013-08-14 15:21:00,
2013-08-14 11:26:00,63.3,55.0,29.78,South,178,5.0,6.0,74,0.00,,,0.00,WUHU216DAVISVP2,2013-08-14 15:26:00,
2013-08-14 11:31:00,64.3,56.0,29.77,WSW,250,1.0,6.0,74,0.00,,,0.00,WUHU216DAVISVP2,2013-08-14 15:31:00,
2013-08-14 11:36:00,64.6,54.7,29.78,WSW,253,0.0,7.0,70,0.00,,,0.00,WUHU216DAVISVP2,2013-08-14 15:36:00,
2013-08-14 11:41:00,64.5,55.0,29.78,SW,217,3.0,7.0,71,0.00,,,0.00,WUHU216DAVISVP2,2013-08-14 15:41:00,
2013-08-14 11:46:00,64.5,55.8,29.78,ESE,112,7.0,7.0,73,0.00,,,0.00,WUHU216DAVISVP2,2013-08-14 15:46:00,
2013-08-14 11:51:00,64.6,54.4,29.78,SSE,165,2.0,12.0,69,0.00,,,0.00,WUHU216DAVISVP2,2013-08-14 15:51:00,
2013-08-14 11:56:00,65.0,55.5,29.78,South,187,7.0,12.0,71,0.00,,,0.00,WUHU216DAVISVP2,2013-08-14 15:56:00,
2013-08-14 12:01:00,65.1,55.2,29.78,SSW,201,3.0,12.0,70,0.00,,,0.00,WUHU216DAVISVP2,2013-08-14 16:01:00,
2013-08-14 12:06:00,64.8,54.9,29.78,SW,236,2.0,8.0,70,0.00,,,0.00,WUHU216DAVISVP2,2013-08-14 16:06:00,
2013-08-14 12:11:00,64.6,55.5,29.78,West,280,1.0,8.0,72,0.00,,,0.00,WUHU216DAVISVP2,2013-08-14 16:11:00,
2013-08-14 12:16:00,64.2,55.1,29.78,West,271,5.0,8.0,72,0.00,,,0.00,WUHU216DAVISVP2,2013-08-14 16:16:00,
2013-08-14 12:22:00,63.6,54.9,29.78,WSW,248,1.0,9.0,73,0.00,,,0.00,WUHU216DAVISVP2,2013-08-14 16:22:00,
2013-08-14 12:27:00,63.2,55.3,29.79,WNW,295,0.0,9.0,75,0.00,,,0.00,WUHU216DAVISVP2,2013-08-14 16:27:00,
2013-08-14 12:32:00,62.8,55.6,29.79,WNW,294,1.0,9.0,77,0.00,,,0.00,WUHU216DAVISVP2,2013-08-14 16:32:00,
2013-08-14 12:37:00,62.2,55.7,29.79,NNW,327,1.0,9.0,79,0.00,,,0.00,WUHU216DAVISVP2,2013-08-14 16:37:00,
2013-08-14 12:42:00,62.2,58.0,29.79,WNW,297,0.0,7.0,86,0.00,,,0.00,WUHU216DAVISVP2,2013-08-14 16:42:00,
2013-08-14 12:47:00,63.3,59.4,29.79,ESE,104,0.0,5.0,87,0.00,,,0.00,WUHU216DAVISVP2,2013-08-14 16:47:00,
2013-08-14 12:52:00,64.2,58.0,29.79,SW,216,0.0,5.0,80,0.00,,,0.00,WUHU216DAVISVP2,2013-08-14 16:52:00,
2013-08-14 12:57:00,65.4,58.5,29.79,NNE,19,0.0,4.0,78,0.00,,,0.00,WUHU216DAVISVP2,2013-08-14 16:57:00,
2013-08-14 13:02:00,65.6,58.3,29.79,NNW,333,1.0,4.0,77,0.00,,,0.00,WUHU216DAVISVP2,2013-08-14 17:02:00,
2013-08-14 13:07:00,65.1,57.1,29.80,WSW,242,5.0,11.0,75,0.00,,,0.00,WUHU216DAVISVP2,2013-08-14 17:07:00,
2013-08-14 13:12:00,65.0,56.9,29.80,NE,39,4.0,11.0,75,0.00,,,0.00,WUHU216DAVISVP2,2013-08-14 17:12:00,
2013-08-14 13:17:00,65.3,56.8,29.80,NNW,327,3.0,11.0,74,0.00,,,0.00,WUHU216DAVISVP2,2013-08-14 17:17:00,
2013-08-14 13:22:00,65.8,57.7,29.80,NE,36,4.0,11.0,75,0.00,,,0.00,WUHU216DAVISVP2,2013-08-14 17:22:00,
2013-08-14 13:27:00,66.1,57.2,29.80,West,281,3.0,11.0,73,0.00,,,0.00,WUHU216DAVISVP2,2013-08-14 17:27:00,
2013-08-14 13:32:00,65.4,56.9,29.80,West,278,1.0,11.0,74,0.00,,,0.00,WUHU216DAVISVP2,2013-08-14 17:32:00,
2013-08-14 13:37:00,64.1,56.4,29.81,West,270,3.0,13.0,76,0.00,,,0.00,WUHU216DAVISVP2,2013-08-14 17:37:00,
2013-08-14 13:42:00,62.0,56.8,29.82,WNW,299,5.0,13.0,83,0.01,,,0.01,WUHU216DAVISVP2,2013-08-14 17:42:00,
2013-08-14 13:47:00,60.5,56.3,29.82,West,279,0.0,13.0,86,0.01,,,0.01,WUHU216DAVISVP2,2013-08-14 17:47:00,
2013-08-14 13:53:00,59.8,56.2,29.83,NE,34,5.0,13.0,88,0.02,,,0.02,WUHU216DAVISVP2,2013-08-14 17:53:00,
2013-08-14 13:58:00,59.3,56.6,29.82,NNW,344,2.0,9.0,91,0.05,,,0.05,WUHU216DAVISVP2,2013-08-14 17:58:00,
2013-08-14 14:03:00,59.2,56.8,29.82,WNW,297,0.0,9.0,92,0.05,,,0.05,WUHU216DAVISVP2,2013-08-14 18:03:00,
2013-08-14 14:08:00,59.3,56.7,29.83,WNW,290,0.0,9.0,91,0.05,,,0.05,WUHU216DAVISVP2,2013-08-14 18:08:00,
2013-08-14 14:13:00,59.4,57.1,29.83,West,270,1.0,9.0,92,0.05,,,0.05,WUHU216DAVISVP2,2013-08-14 18:13:00,
2013-08-14 14:18:00,59.5,57.2,29.83,NW,322,0.0,6.0,92,0.05,,,0.05,WUHU216DAVISVP2,2013-08-14 18:18:00,
2013-08-14 14:23:00,60.3,58.6,29.83,WNW,283,0.0,3.0,94,0.06,,,0.06,WUHU216DAVISVP2,2013-08-14 18:23:00,
2013-08-14 14:28:00,60.8,58.1,29.83,NE,45,1.0,4.0,91,0.06,,,0.06,WUHU216DAVISVP2,2013-08-14 18:28:00,
2013-08-14 14:33:00,60.8,58.4,29.83,ENE,64,3.0,4.0,92,0.06,,,0.06,WUHU216DAVISVP2,2013-08-14 18:33:00,
2013-08-14 14:38:00,60.5,57.8,29.83,NW,326,1.0,4.0,91,0.07,,,0.07,WUHU216DAVISVP2,2013-08-14 18:38:00,
2013-08-14 14:44:00,60.7,58.0,29.83,North,351,2.0,4.0,91,0.06,,,0.07,WUHU216DAVISVP2,2013-08-14 18:44:00,
2013-08-14 14:49:00,60.7,58.6,29.83,NNE,20,1.0,4.0,93,0.06,,,0.07,WUHU216DAVISVP2,2013-08-14 18:49:00,
2013-08-14 14:54:00,60.5,58.1,29.83,North,354,0.0,5.0,92,0.04,,,0.07,WUHU216DAVISVP2,2013-08-14 18:54:00,
2013-08-14 14:59:00,61.3,59.2,29.83,West,264,0.0,5.0,93,0.02,,,0.07,WUHU216DAVISVP2,2013-08-14 18:59:00,
2013-08-14 15:04:00,62.5,59.2,29.83,WNW,290,1.0,5.0,89,0.02,,,0.07,WUHU216DAVISVP2,2013-08-14 19:04:00,
2013-08-14 15:12:00,62.6,58.0,29.83,WNW,291,1.0,5.0,85,0.02,,,0.07,WUHU216DAVISVP2,2013-08-14 19:12:00,
2013-08-14 15:17:00,63.9,59.0,29.83,West,269,4.0,5.0,84,0.02,,,0.07,WUHU216DAVISVP2,2013-08-14 19:17:00,
2013-08-14 15:22:00,63.2,58.3,29.83,NNE,32,2.0,5.0,84,0.01,,,0.07,WUHU216DAVISVP2,2013-08-14 19:22:00,
2013-08-14 15:28:00,63.0,58.7,29.83,NNE,20,3.0,5.0,86,0.01,,,0.07,WUHU216DAVISVP2,2013-08-14 19:28:00,
2013-08-14 15:33:00,63.7,58.4,29.84,West,265,2.0,5.0,83,0.01,,,0.07,WUHU216DAVISVP2,2013-08-14 19:33:00,
2013-08-14 15:38:00,64.2,59.0,29.84,WSW,238,2.0,6.0,83,0.00,,,0.07,WUHU216DAVISVP2,2013-08-14 19:38:00,
2013-08-14 15:43:00,64.5,59.3,29.84,WNW,293,1.0,6.0,83,0.00,,,0.07,WUHU216DAVISVP2,2013-08-14 19:43:00,
2013-08-14 15:48:00,64.9,58.3,29.84,WNW,299,1.0,6.0,79,0.00,,,0.07,WUHU216DAVISVP2,2013-08-14 19:48:00,
2013-08-14 15:53:00,64.7,58.5,29.84,NW,321,1.0,6.0,80,0.00,,,0.07,WUHU216DAVISVP2,2013-08-14 19:53:00,
2013-08-14 15:58:00,65.0,59.4,29.84,SE,132,0.0,5.0,82,0.00,,,0.07,WUHU216DAVISVP2,2013-08-14 19:58:00,
2013-08-14 16:03:00,65.7,58.7,29.84,East,96,1.0,10.0,78,0.00,,,0.07,WUHU216DAVISVP2,2013-08-14 20:03:00,
2013-08-14 16:08:00,66.3,59.0,29.85,West,274,7.0,10.0,77,0.00,,,0.07,WUHU216DAVISVP2,2013-08-14 20:08:00,
2013-08-14 16:13:00,66.1,59.5,29.85,North,11,2.0,10.0,79,0.00,,,0.07,WUHU216DAVISVP2,2013-08-14 20:13:00,
2013-08-14 16:18:00,65.4,57.4,29.85,NNE,25,5.0,11.0,75,0.00,,,0.07,WUHU216DAVISVP2,2013-08-14 20:18:00,
2013-08-14 16:23:00,64.8,56.8,29.85,NW,304,2.0,11.0,75,0.00,,,0.07,WUHU216DAVISVP2,2013-08-14 20:23:00,
2013-08-14 16:28:00,65.4,57.7,29.85,North,11,2.0,11.0,76,0.00,,,0.07,WUHU216DAVISVP2,2013-08-14 20:28:00,
2013-08-14 16:34:00,66.2,58.2,29.85,NE,53,3.0,11.0,75,0.00,,,0.07,WUHU216DAVISVP2,2013-08-14 20:34:00,
2013-08-14 16:39:00,66.2,56.3,29.85,WNW,284,0.0,8.0,70,0.00,,,0.07,WUHU216DAVISVP2,2013-08-14 20:39:00,
2013-08-14 16:44:00,65.5,56.2,29.85,NNE,25,0.0,8.0,72,0.00,,,0.07,WUHU216DAVISVP2,2013-08-14 20:44:00,
2013-08-14 16:49:00,65.4,56.9,29.85,West,281,1.0,8.0,74,0.00,,,0.07,WUHU216DAVISVP2,2013-08-14 20:49:00,
2013-08-14 16:54:00,65.2,56.8,29.86,SSW,202,0.0,7.0,74,0.00,,,0.07,WUHU216DAVISVP2,2013-08-14 20:54:00,
2013-08-14 16:59:00,65.0,56.6,29.86,NNE,24,2.0,6.0,74,0.00,,,0.07,WUHU216DAVISVP2,2013-08-14 20:59:00,
2013-08-14 17:04:00,65.0,56.3,29.86,NNW,327,0.0,6.0,73,0.00,,,0.07,WUHU216DAVISVP2,2013-08-14 21:04:00,
2013-08-14 17:09:00,65.4,56.3,29.86,North,359,0.0,6.0,72,0.00,,,0.07,WUHU216DAVISVP2,2013-08-14 21:09:00,
2013-08-14 17:14:00,66.5,57.2,29.87,NE,46,0.0,5.0,72,0.00,,,0.07,WUHU216DAVISVP2,2013-08-14 21:14:00,
2013-08-14 17:19:00,67.5,57.1,29.87,NW,306,2.0,6.0,69,0.00,,,0.07,WUHU216DAVISVP2,2013-08-14 21:19:00,
2013-08-14 17:24:00,66.6,55.5,29.87,SW,233,7.0,9.0,67,0.00,,,0.07,WUHU216DAVISVP2,2013-08-14 21:24:00,
2013-08-14 17:29:00,65.6,55.7,29.87,West,264,3.0,9.0,70,0.00,,,0.07,WUHU216DAVISVP2,2013-08-14 21:29:00,
2013-08-14 17:34:00,65.0,55.5,29.87,WNW,300,0.0,9.0,71,0.00,,,0.07,WUHU216DAVISVP2,2013-08-14 21:34:00,
2013-08-14 17:39:00,64.8,55.7,29.88,West,268,0.0,9.0,72,0.00,,,0.07,WUHU216DAVISVP2,2013-08-14 21:39:00,
2013-08-14 17:44:00,64.4,55.3,29.88,WNW,301,0.0,7.0,72,0.00,,,0.07,WUHU216DAVISVP2,2013-08-14 21:44:00,
2013-08-14 17:49:00,64.0,55.7,29.88,East,99,0.0,7.0,74,0.00,,,0.07,WUHU216DAVISVP2,2013-08-14 21:49:00,
2013-08-14 17:54:00,64.0,55.7,29.88,SSE,156,0.0,7.0,74,0.00,,,0.07,WUHU216DAVISVP2,2013-08-14 21:54:00,
2013-08-14 17:59:00,64.8,56.8,29.88,ENE,63,0.0,7.0,75,0.00,,,0.07,WUHU216DAVISVP2,2013-08-14 21:59:00,
2013-08-14 18:04:00,65.6,56.5,29.88,West,268,0.0,5.0,72,0.00,,,0.07,WUHU216DAVISVP2,2013-08-14 22:04:00,
2013-08-14 18:09:00,65.3,55.4,29.89,West,279,0.0,5.0,70,0.00,,,0.07,WUHU216DAVISVP2,2013-08-14 22:09:00,
2013-08-14 18:14:00,64.5,55.4,29.90,West,269,0.0,4.0,72,0.00,,,0.07,WUHU216DAVISVP2,2013-08-14 22:14:00,
2013-08-14 18:19:00,64.0,55.7,29.90,WSW,237,0.0,4.0,74,0.00,,,0.07,WUHU216DAVISVP2,2013-08-14 22:19:00,
2013-08-14 18:24:00,63.7,55.4,29.90,WSW,248,0.0,5.0,74,0.00,,,0.07,WUHU216DAVISVP2,2013-08-14 22:24:00,
2013-08-14 18:29:00,63.4,55.1,29.90,WNW,288,0.0,5.0,74,0.00,,,0.07,WUHU216DAVISVP2,2013-08-14 22:29:00,
2013-08-14 18:34:00,62.9,54.6,29.91,West,278,0.0,5.0,74,0.00,,,0.07,WUHU216DAVISVP2,2013-08-14 22:34:00,
2013-08-14 18:39:00,62.9,54.2,29.91,West,272,1.0,5.0,73,0.00,,,0.07,WUHU216DAVISVP2,2013-08-14 22:39:00,
2013-08-14 18:44:00,62.8,53.8,29.91,ENE,62,1.0,5.0,72,0.00,,,0.07,WUHU216DAVISVP2,2013-08-14 22:44:00,
2013-08-14 18:49:00,62.7,55.1,29.92,ENE,62,0.0,3.0,76,0.00,,,0.07,WUHU216DAVISVP2,2013-08-14 22:49:00,
2013-08-14 18:54:00,62.4,54.4,29.92,ENE,61,1.0,2.0,75,0.00,,,0.07,WUHU216DAVISVP2,2013-08-14 22:54:00,
2013-08-14 19:00:00,62.2,56.6,29.92,ENE,61,0.0,1.0,82,0.00,,,0.07,WUHU216DAVISVP2,2013-08-14 23:00:00,
2013-08-14 19:06:00,61.6,56.1,29.92,ENE,60,1.0,1.0,82,0.00,,,0.07,WUHU216DAVISVP2,2013-08-14 23:06:00,
2013-08-14 19:11:00,62.0,56.8,29.92,ENE,61,0.0,1.0,83,0.00,,,0.07,WUHU216DAVISVP2,2013-08-14 23:11:00,
2013-08-14 19:16:00,62.6,57.4,29.92,ENE,61,0.0,1.0,83,0.00,,,0.07,WUHU216DAVISVP2,2013-08-14 23:16:00,
2013-08-14 19:21:00,62.6,57.4,29.92,North,5,0.0,1.0,83,0.00,,,0.07,WUHU216DAVISVP2,2013-08-14 23:21:00,
2013-08-14 19:26:00,62.1,57.5,29.92,NNW,340,1.0,2.0,85,0.00,,,0.07,WUHU216DAVISVP2,2013-08-14 23:26:00,
2013-08-14 19:31:00,61.7,56.2,29.92,West,275,1.0,3.0,82,0.00,,,0.07,WUHU216DAVISVP2,2013-08-14 23:31:00,
2013-08-14 19:36:00,61.3,55.5,29.92,SSE,155,1.0,3.0,81,0.00,,,0.07,WUHU216DAVISVP2,2013-08-14 23:36:00,
2013-08-14 19:41:00,61.1,57.2,29.93,SE,124,0.0,3.0,87,0.00,,,0.07,WUHU216DAVISVP2,2013-08-14 23:41:00,
2013-08-14 19:46:00,60.5,57.2,29.94,NNW,333,1.0,3.0,89,0.00,,,0.07,WUHU216DAVISVP2,2013-08-14 23:46:00,
2013-08-14 19:51:00,60.3,55.8,29.93,West,281,1.0,3.0,85,0.00,,,0.07,WUHU216DAVISVP2,2013-08-14 23:51:00,
2013-08-14 19:56:00,60.1,56.8,29.93,East,79,0.0,3.0,89,0.00,,,0.07,WUHU216DAVISVP2,2013-08-14 23:56:00,
2013-08-14 20:01:00,59.8,56.5,29.94,NE,55,2.0,3.0,89,0.00,,,0.07,WUHU216DAVISVP2,2013-08-15 00:01:00,
2013-08-14 20:06:00,59.3,56.0,29.94,NE,55,0.0,2.0,89,0.00,,,0.07,WUHU216DAVISVP2,2013-08-15 00:06:00,
2013-08-14 20:11:00,59.1,55.8,29.94,NE,55,0.0,2.0,89,0.00,,,0.07,WUHU216DAVISVP2,2013-08-15 00:11:00,
2013-08-14 20:16:00,58.9,55.6,29.94,NE,55,0.0,2.0,89,0.00,,,0.07,WUHU216DAVISVP2,2013-08-15 00:16:00,
2013-08-14 20:21:00,58.5,55.5,29.94,NE,55,0.0,1.0,90,0.00,,,0.07,WUHU216DAVISVP2,2013-08-15 00:21:00,
2013-08-14 20:26:00,57.9,55.0,29.95,NE,55,0.0,1.0,90,0.00,,,0.07,WUHU216DAVISVP2,2013-08-15 00:26:00,
2013-08-14 20:31:00,57.6,55.0,29.95,NE,55,0.0,1.0,91,0.00,,,0.07,WUHU216DAVISVP2,2013-08-15 00:31:00,
2013-08-14 20:36:00,57.1,54.5,29.95,NNE,27,1.0,2.0,91,0.00,,,0.07,WUHU216DAVISVP2,2013-08-15 00:36:00,
2013-08-14 20:41:00,56.7,54.7,29.95,NE,53,0.0,2.0,93,0.00,,,0.07,WUHU216DAVISVP2,2013-08-15 00:41:00,
2013-08-14 20:46:00,56.4,54.4,29.95,North,5,0.0,2.0,93,0.00,,,0.07,WUHU216DAVISVP2,2013-08-15 00:46:00,
2013-08-14 20:51:00,56.1,54.4,29.95,NNW,340,0.0,2.0,94,0.00,,,0.07,WUHU216DAVISVP2,2013-08-15 00:51:00,
2013-08-14 20:56:00,55.8,54.1,29.96,NNE,25,0.0,2.0,94,0.00,,,0.07,WUHU216DAVISVP2,2013-08-15 00:56:00,
2013-08-14 21:01:00,55.5,53.8,29.96,NNE,31,0.0,2.0,94,0.00,,,0.07,WUHU216DAVISVP2,2013-08-15 01:01:00,
2013-08-14 21:06:00,55.3,53.9,29.96,NNE,31,1.0,3.0,95,0.00,,,0.07,WUHU216DAVISVP2,2013-08-15 01:06:00,
2013-08-14 21:11:00,55.1,53.7,29.96,North,3,1.0,3.0,95,0.00,,,0.07,WUHU216DAVISVP2,2013-08-15 01:11:00,
2013-08-14 21:16:00,54.9,53.5,29.96,North,11,0.0,3.0,95,0.00,,,0.07,WUHU216DAVISVP2,2013-08-15 01:16:00,
2013-08-14 21:21:00,54.8,53.6,29.97,NE,53,0.0,3.0,96,0.00,,,0.07,WUHU216DAVISVP2,2013-08-15 01:21:00,
2013-08-14 21:26:00,54.6,53.2,29.97,NNE,19,0.0,2.0,95,0.00,,,0.07,WUHU216DAVISVP2,2013-08-15 01:26:00,
2013-08-14 21:31:00,54.4,53.3,29.97,NNE,19,0.0,1.0,96,0.00,,,0.07,WUHU216DAVISVP2,2013-08-15 01:31:00,
2013-08-14 21:36:00,54.3,53.1,29.97,NNE,29,0.0,2.0,96,0.00,,,0.07,WUHU216DAVISVP2,2013-08-15 01:36:00,
2013-08-14 21:41:00,54.3,53.1,29.97,NNE,15,2.0,2.0,96,0.00,,,0.07,WUHU216DAVISVP2,2013-08-15 01:41:00,
2013-08-14 21:46:00,54.3,53.1,29.97,NNE,15,0.0,2.0,96,0.00,,,0.07,WUHU216DAVISVP2,2013-08-15 01:46:00,
2013-08-14 21:51:00,54.2,53.1,29.97,NNE,17,0.0,2.0,96,0.00,,,0.07,WUHU216DAVISVP2,2013-08-15 01:51:00,
2013-08-14 21:56:00,54.1,52.9,29.97,NNE,16,0.0,2.0,96,0.00,,,0.07,WUHU216DAVISVP2,2013-08-15 01:56:00,
2013-08-14 22:01:00,54.0,53.1,29.98,NNE,17,0.0,2.0,97,0.00,,,0.07,WUHU216DAVISVP2,2013-08-15 02:01:00,
2013-08-14 22:06:00,53.9,53.0,29.97,NNE,17,0.0,2.0,97,0.00,,,0.07,WUHU216DAVISVP2,2013-08-15 02:06:00,
2013-08-14 22:11:00,53.7,52.8,29.97,NNE,21,0.0,1.0,97,0.00,,,0.07,WUHU216DAVISVP2,2013-08-15 02:11:00,
2013-08-14 22:16:00,53.7,52.9,29.98,NNE,21,0.0,1.0,97,0.00,,,0.07,WUHU216DAVISVP2,2013-08-15 02:16:00,
2013-08-14 22:21:00,53.4,52.5,29.98,NNE,21,0.0,1.0,97,0.00,,,0.07,WUHU216DAVISVP2,2013-08-15 02:21:00,
2013-08-14 22:26:00,53.2,52.3,29.98,NNE,21,0.0,1.0,97,0.00,,,0.07,WUHU216DAVISVP2,2013-08-15 02:26:00,
2013-08-14 22:31:00,53.0,52.1,29.98,NNE,21,0.0,1.0,97,0.00,,,0.07,WUHU216DAVISVP2,2013-08-15 02:31:00,
2013-08-14 22:36:00,52.9,52.1,29.98,NNE,21,0.0,1.0,97,0.00,,,0.07,WUHU216DAVISVP2,2013-08-15 02:36:00,
2013-08-14 22:41:00,53.0,52.4,29.98,NNE,21,0.0,1.0,98,0.00,,,0.07,WUHU216DAVISVP2,2013-08-15 02:41:00,
2013-08-14 22:46:00,52.8,52.2,29.98,NNE,21,0.0,1.0,98,0.00,,,0.07,WUHU216DAVISVP2,2013-08-15 02:46:00,
2013-08-14 22:51:00,52.7,52.1,29.99,NNE,21,1.0,1.0,98,0.00,,,0.07,WUHU216DAVISVP2,2013-08-15 02:51:00,
2013-08-14 22:56:00,52.7,52.2,29.99,NNE,21,0.0,1.0,98,0.00,,,0.07,WUHU216DAVISVP2,2013-08-15 02:56:00,
2013-08-14 23:01:00,52.5,51.9,29.98,NNE,21,0.0,1.0,98,0.00,,,0.07,WUHU216DAVISVP2,2013-08-15 03:01:00,
2013-08-14 23:06:00,52.4,51.8,29.99,NNE,21,0.0,1.0,98,0.00,,,0.07,WUHU216DAVISVP2,2013-08-15 03:06:00,
2013-08-14 23:11:00,52.4,51.8,29.99,NNE,21,0.0,1.0,98,0.00,,,0.07,WUHU216DAVISVP2,2013-08-15 03:11:00,
2013-08-14 23:16:00,52.2,51.7,29.99,NNE,21,0.0,1.0,98,0.00,,,0.07,WUHU216DAVISVP2,2013-08-15 03:16:00,
2013-08-14 23:21:00,52.2,51.6,29.99,NE,53,0.0,1.0,98,0.00,,,0.07,WUHU216DAVISVP2,2013-08-15 03:21:00,
2013-08-14 23:26:00,52.1,51.5,29.99,NE,53,0.0,1.0,98,0.00,,,0.07,WUHU216DAVISVP2,2013-08-15 03:26:00,
2013-08-14 23:31:00,52.1,51.5,29.99,NNE,18,0.0,1.0,98,0.00,,,0.07,WUHU216DAVISVP2,2013-08-15 03:31:00,
2013-08-14 23:36:00,51.9,51.3,29.99,North,8,1.0,1.0,98,0.00,,,0.07,WUHU216DAVISVP2,2013-08-15 03:36:00,
2013-08-14 23:41:00,52.0,51.5,29.99,NNE,29,0.0,1.0,98,0.00,,,0.07,WUHU216DAVISVP2,2013-08-15 03:41:00,
2013-08-14 23:46:00,52.1,51.8,29.99,West,271,0.0,1.0,99,0.00,,,0.07,WUHU216DAVISVP2,2013-08-15 03:46:00,
2013-08-14 23:51:00,51.7,51.1,29.99,West,271,0.0,1.0,98,0.00,,,0.07,WUHU216DAVISVP2,2013-08-15 03:51:00,
2013-08-14 23:56:00,51.6,51.0,30.00,West,271,0.0,1.0,98,0.00,,,0.07,WUHU216DAVISVP2,2013-08-15 03:56:00,